Location: Unspecified
(33.6682°S, 0.0000°E)
Time: 18:42:06
(UTC+00:00)

Vanguard 2 Rocket - Pass Details

Date: 23 June 2019
Orbit: 553 x 3327 km, 32.9° (Epoch: 24 August)

Event Time Altitude Azimuth Distance (km) Brightness Sun altitude
Rises 10:15:43 0° 280° (W) 6,479 11.1 27.5°
Reaches altitude 10° 10:20:38 10° 280° (W) 5,069 10.6 28.0°
Maximum altitude 10:33:57 84° 5° (N) 1,542 8.7 29.2°
Drops below altitude 10° 10:41:08 10° 93° (E) 2,880 9.8 29.7°
Sets 10:43:13 0° 93° (E) 3,598 10.2 29.9°
